Preview of NWS' New Version of Forecast
This preview is not operational and should not be used for support decisions.

Regional Weather Roundup (RWR)

Issued by National Weather Service (NWS)

                            
000
ASUS42 KTBW 230316
RWRFL 
FLORIDA REGIONAL WEATHER ROUNDUP
NATIONAL WEATHER SERVICE TAMPA BAY RUSKIN FL
1100 PM EDT FRI MAR 22 2019

NOTE: "FAIR" INDICATES FEW OR NO CLOUDS BELOW 12,000 FEET WITH NO
SIGNIFICANT WEATHER AND/OR OBSTRUCTIONS TO VISIBILITY.

FLZ001>010-012>015-112-114-115-230400-
PANHANDLE FLORIDA
  
CITY           SKY/WX    TMP DP  RH WIND       PRES   REMARKS
PENSACOLA      FAIR      57  47  69 W7        30.15R                  
PENSACOLA NAS  FAIR      54  47  77 CALM      30.15R                  
MILTON NAS     FAIR      47  39  74 N3        30.14R                  
CRESTVIEW      FAIR      47  38  71 N5        30.15R WCI  45          
MARY ESTHER    CLEAR     57  49  74 CALM      30.13R                  
PANAMA CITY    FAIR      54  47  77 CALM      30.13R                  
APALACHICOLA   FAIR      51  46  83 NW5       30.13R                  

STATION/POSITION SKY/WX   TEMP    WIND        PRES    WAVE   SWELL
                          AIR SEA DIR/SP/G            HT/PER HT/PER
                          (F)     (DEG/KT/KT) (MB)    (FT/S) (FT/S)
30.1N   87.6W                                 1021.3R   2/ 3
29.2N   88.2W                     260/  6/  8 1021.8R   1/ 4
PANAMA CITY BEAC           63 66  280/ 12/ 13 1020.7R
TOWER C                    62     300/ 14/ 15 1020.6R

$$
FLZ011-016>038-118-127-128-134-139-239-230400-
NORTH FLORIDA
  
CITY           SKY/WX    TMP DP  RH WIND       PRES   REMARKS
MARIANNA       FAIR      52  40  63 CALM      30.12R                  
TALLAHASSEE    FAIR      48  36  63 CALM      30.11R                  
PERRY          FOG       50  49  97 CALM      30.12R VSB 1/4          
LIVE OAK       CLOUDY    50  45  81 CALM      30.11R                  
CROSS CITY     FAIR      50  48  94 CALM      30.11R                  
LAKE CITY      FAIR      54  45  71 W7        30.11R                  
GAINESVILLE    FAIR      57  46  66 W7        30.12R                  
WILLISTON        N/A    N/A N/A N/A MISG        N/A                   
PALATKA        CLOUDY    54  45  71 W6        30.10R                  
MAYPORT NAS    FAIR      62  42  47 W6        30.07R                  
JACKSONVILLE   FAIR      53  37  54 CALM      30.07R                  
JAX NAS        MOCLDY    63  31  30 W6        30.09R                  
JAX CECIL      CLEAR    N/A N/A N/A CALM      30.08R                  
FERNANDINA BEA FAIR      57  35  44 W6        30.07R                  
PALM COAST     FAIR      57  43  60 W3        30.09R                  

STATION/POSITION SKY/WX   TEMP    WIND        PRES    WAVE   SWELL
                          AIR SEA DIR/SP/G            HT/PER HT/PER
                          (F)     (DEG/KT/KT) (MB)    (FT/S) (FT/S)
SHELL POINT      NOT AVBL
KEATON BEACH               63     270/  9/ 12 1019.9R
CEDAR KEY                  62     300/  8/ 12 1019.1R
FERNANDINA                 62 62  250/  5/  6 1018.9R
30.7N   81.3W                 62                N/A     2/13   2/13
MAYPORT                    64 62  280/  6/  7 1018.2R
31.4N   80.9W              64 62  260/ 16/ 17 1017.0R   2/11   2/11
ST AUGUSTINE               60 63  250/  5/  6 1018.8R

$$
FLZ040-043>046-052-053-057-058-063-144-230400-
INTERIOR CENTRAL FLORIDA
  
CITY           SKY/WX    TMP DP  RH WIND       PRES   REMARKS
OCALA          FAIR      51  45  79 CALM      30.12R                  
LEESBURG       FAIR      56  45  66 SW3       30.12R                  
SANFORD        FAIR      58  42  55 W6        30.10R                  
ORLANDO EXEC   FAIR      61  43  51 W9        30.11R                  
ORLANDO INTL   FAIR      60  42  51 W9        30.12R                  
KISSIMMEE      FAIR      57  44  62 W6        30.13R                  
WINTER HAVEN   FAIR      59  46  62 W5        30.14R                  
LAKELAND       FAIR      52  43  71 CALM      30.14R                  
BARTOW         FAIR      59  43  55 W6        30.12R                  
SEBRING        FAIR      59  44  57 W7        30.13R                  
OKEECHOBEE     FAIR      57  48  72 CALM      30.11S                  

$$
FLZ041-047-054-059-064-141-147-230400-
EAST CENTRAL FLORIDA
  
CITY           SKY/WX    TMP DP  RH WIND       PRES   REMARKS
DAYTONA BEACH  FAIR      57  43  59 W6        30.09R                  
DELAND         FAIR      59  41  51 W3        30.10R                  
MELBOURNE      FAIR      62  45  53 W9        30.10R                  
VERO BEACH     FAIR      58  48  69 W6        30.10R                  
FT PIERCE      FAIR      52  47  83 W5        30.10R                  
STUART         FAIR      59  45  58 W3        30.12R                  

STATION/POSITION SKY/WX   TEMP    WIND        PRES    WAVE   SWELL
                          AIR SEA DIR/SP/G            HT/PER HT/PER
                          (F)     (DEG/KT/KT) (MB)    (FT/S) (FT/S)
28.5N   80.2W              67     220/  6/  8 1018.9R   4/ 8   3/ 8
28.9N   78.5W              71 74  260/ 14/ 17 1018.5R   6/ 7   3/10
TRIDENT PIER               64 67  280/  5/  7 1020.0R
28.4N   80.5W                 67                N/A     2/12   2/12
27.5N   80.2W                 69                N/A     3/11   2/11

$$
FLZ050-056-061-142-242-148-248-149-249-151-251-155-255-
160-260-230400-
WEST CENTRAL FLORIDA
  
CITY           SKY/WX    TMP DP  RH WIND       PRES   REMARKS
CRYSTAL RIVER  FAIR      46  45  93 CALM      30.12R                  
INVERNESS      FAIR      46  46 100 CALM      30.13R                  
BROOKSVILLE    FAIR      46  42  86 CALM      30.13R                  
CLEARWATER AIR FAIR      55  46  71 CALM      30.14R                  
ST PETE CLEARW FAIR      54  47  77 W3        30.14R                  
TAMPA INTL     FAIR      61  46  57 NW3       30.14R                  
TAMPA EXEC     FAIR      50  46  87 CALM      30.14R                  
PLANT CITY     FAIR      55  45  67 SW3       30.15R                  
PETER O KNIGHT MOCLDY    61  50  67 CALM      30.14R                  
ST PETERSBURG  FAIR      63  49  60 NW6       30.12R                  
SARASOTA       FAIR      59  47  64 NW5       30.12R                  
VENICE         FAIR      64  48  55 NW8       30.14R                  

STATION/POSITION SKY/WX   TEMP    WIND        PRES    WAVE   SWELL
                          AIR SEA DIR/SP/G            HT/PER HT/PER
                          (F)     (DEG/KT/KT) (MB)    (FT/S) (FT/S)
27.3N   84.2W                 72                N/A     4/ 6
CLEARWATER BEACH           63 69  290/  8/ 10 1020.4R
MIDDLE TAMPA BAY           63     340/  8/  9 1020.3R
VENICE                     66 71  300/ 11/ 12 1020.4R

$$
FLZ066-069-070-075>078-162-262-165-265-230400-
SOUTHWEST FLORIDA AND KEYS
  
CITY           SKY/WX    TMP DP  RH WIND       PRES   REMARKS
PUNTA GORDA    FAIR      59  48  67 N5        30.15R                  
FT MYERS       FAIR      62  49  62 N6        30.13R                  
SOUTHWEST INTL FAIR      62  49  62 NW7       30.13R                  
NAPLES         FAIR      66  52  60 NW6       30.13R                  
MARCO ISLAND   FAIR      63  53  70 NW3       30.14                   
IMMOKALEE      FAIR      59  50  72 NW5       30.11R                  
MARATHON       FAIR      71  52  50 N5        30.12R                  
KEY WEST NAS   FAIR      68  52  56 N8        30.13R                  
KEY WEST INTL  FAIR      68  54  60 N5        30.14R                  

STATION/POSITION SKY/WX   TEMP    WIND        PRES    WAVE   SWELL
                          AIR SEA DIR/SP/G            HT/PER HT/PER
                          (F)     (DEG/KT/KT) (MB)    (FT/S) (FT/S)
NAPLES                     68 71  260/ 11/ 14 1020.0R
26.0N   85.6W              70 79  360/  6/ 12 1020.7
DRY TORTUGAS               68      10/  4/  6 1020.8R
SAND KEY                   68                 1020.5R
SOMBRERO KEY               69                 1019.5R
MOLASSES REEF              68 78  340/ 11/ 13 1020.4R

$$
FLZ067-068-071>074-168-172>174-230400-
SOUTHEAST FLORIDA 
  
CITY           SKY/WX    TMP DP  RH WIND       PRES   REMARKS
W PALM BEACH   FAIR      63  47  55 CALM      30.11R                  
BOCA RATON     CLEAR     55  48  76 S5        30.11R                  
FT LAUDER-EXEC FAIR      63  46  54 CALM      30.11R                  
FT LAUDERDALE  FAIR      67  45  45 CALM      30.11R                  
POMPANO BEACH  FAIR      63  45  51 CALM      30.11R                  
PEMBROKE PINES FAIR      63  45  51 CALM      30.13R                  
OPA LOCKA      FAIR      63  45  51 CALM      30.13R                  
MIAMI          FAIR      65  48  54 SW5       30.13R                  
WEST KENDALL   FAIR      61  53  75 W6        30.13R                  
HOMESTEAD      NOT AVBL                                               

STATION/POSITION SKY/WX   TEMP    WIND        PRES    WAVE   SWELL
                          AIR SEA DIR/SP/G            HT/PER HT/PER
                          (F)     (DEG/KT/KT) (MB)    (FT/S) (FT/S)
PORT EVERGLADES            67      CALM  /  1 1019.1
VIRGINIA KEY               69 76   CALM  /  1 1019.1R
LAKE WORTH                 68 73  220/  1/  2 1020.5R
FOWEY ROCKS                70 77  190/  1/  2 1020.7R
SETTLEMENT POINT           67     140/  4/  4 1019.8R

$$